COSMOS 1408 (13552 NORAD) Tracking and Keplerian Element Data

This shows tracking and keplerian element data for the satellite.

Feedback or suggestion? Click here.




ElementValue
Catalog13552
NameCOSMOS 1408
Epoch Orbit15264
Epoch Day16.18488839
Epoch Year2022
RAAN61.4734
Inclination82.5724
Eccentricity0.0025749
Argument of Perigee289.0394
Mean Anonmoly70.8058
Mean Motion15.31414436
Decay Rate5.111E-05
L11 13552U 82092A 22016.18488839 .00005111 00000+0 16568-3 0 9993
L22 13552 82.5724 61.4734 0025749 289.0394 70.8058 15.31414436152641

Live tracking and technical data element details for COSMOS 1408 (NORAD 13552). COSMOS 1408 can be tracked NOW for your location showing map with azimuth and elevation plus other details from your city location.

Track the satellite on the map from your city or location and see movement details for azimuth, elevation, latitude, longitude, range, height, and movement on the map or in text.







IsCatalogInMostPopularTable: catalog: 13552, numindb: 139
Update: records affected: 1



GetName: 13552 COSMOS 1408

Hit Count: updated at: Mon, 17 Jan 2022 01:14:58 GMT